Orbital Elements at Epoch 2459000.5 (2020-May-31.0) TDB
Reference: JPL 15 (heliocentric ecliptic J2000)
Element | Value | Uncertainty (1-sigma) | Units |
e | .1331798733212714 | 5.3159e-08 | |
a | 2.907611849299836 | 3.5451e-08 | au |
q | 2.520376471542656 | 1.5851e-07 | au |
i | 10.73504663500584 | 6.1707e-06 | deg |
node | 161.7833836329329 | 3.8621e-05 | deg |
peri | 296.8677250374409 | 4.8546e-05 | deg |
M | 138.656444109707 | 3.1027e-05 | deg |
tp | 2458303.005753468168 (2018-Jul-03.50575347) | 0.00014991 | TDB |
period | 1810.935873653209 4.96 | 3.312e-05 9.068e-08 | d yr |
n | .198792240651664 | 3.6357e-09 | deg/d |
Q | 3.294847227057015 | 4.0173e-08 | au |
|
| | Orbit Determination Parameters
Additional Information
|